When you browse on this site, cookies collect data to enhance your experience and personalize the content and advertising you see.
Visit our Privacy Policy to learn more. By continuing to use the site, you agree to this use of cookies and data.
  • In Romania
  • List of Countries
  • For 7 days
  • Water Temperature
  • Satellite Maps
  • Weather Map
  • Weather Widgets
  • user-avatar
    Login

    Hourly Weather Reading

    Today, 25 March, Monday

    Time Temperature Precipitation Wind Pressure Humidity
    00:00 +3°C° 0 mm 3 mps 768 mmHg 88%
    01:00 +3°C° 0 mm 4 mps 768 mmHg 90%
    02:00 +3°C° 0 mm 4 mps 768 mmHg 92%
    03:00 +3°C° 0 mm 4 mps 768 mmHg 93%
    04:00 +3°C° 0 mm 4 mps 768 mmHg 92%
    05:00 +3°C° 0 mm 4 mps 768 mmHg 91%
    06:00 +3°C° 0 mm 4 mps 768 mmHg 90%
    07:00 +3°C° 0 mm 5 mps 769 mmHg 82%
    08:00 +5°C° 0 mm 5 mps 769 mmHg 74%
    09:00 +5°C° 0 mm 6 mps 770 mmHg 67%
    10:00 +7°C° 0 mm 6 mps 770 mmHg 64%
    11:00 +8°C° 0 mm 5 mps 770 mmHg 61%
    12:00 +9°C° 0 mm 5 mps 771 mmHg 58%
    13:00 +11°C° 0 mm 4 mps 771 mmHg 58%
    14:00 +11°C° 0 mm 4 mps 771 mmHg 57%
    15:00 +11°C° 0 mm 4 mps 771 mmHg 57%
    16:00 +10°C° 0 mm 3 mps 771 mmHg 62%
    17:00 +9°C° 0 mm 2 mps 771 mmHg 68%
    18:00 +8°C° 0 mm 2 mps 771 mmHg 73%
    19:00 +8°C° 0 mm 1 mps 771 mmHg 76%
    20:00 +7°C° 0 mm 1 mps 772 mmHg 79%
    21:00 +6°C° 0 mm 1 mps 772 mmHg 83%
    22:00 +6°C° 0 mm 1 mps 772 mmHg 84%
    23:00 +5°C° 0 mm 1 mps 773 mmHg 85%

    Tomorrow, 26 March, Tuesday

    Time Temperature Precipitation Wind Pressure Humidity
    00:00 +5°C° 0 mm 1 mps 773 mmHg 86%
    01:00 +4°C° 0 mm 1 mps 773 mmHg 87%
    02:00 +4°C° 0 mm 1 mps 772 mmHg 87%
    03:00 +3°C° 0 mm 2 mps 772 mmHg 88%
    04:00 +2°C° 0 mm 2 mps 772 mmHg 89%
    05:00 +2°C° 0 mm 2 mps 772 mmHg 90%
    06:00 +2°C° 0 mm 2 mps 772 mmHg 91%
    07:00 +4°C° 0 mm 2 mps 772 mmHg 86%
    08:00 +5°C° 0 mm 2 mps 773 mmHg 81%
    09:00 +7°C° 0 mm 3 mps 773 mmHg 76%
    10:00 +9°C° 0 mm 3 mps 773 mmHg 71%
    11:00 +10°C° 0 mm 3 mps 772 mmHg 66%
    12:00 +12°C° 0 mm 3 mps 772 mmHg 61%
    13:00 +12°C° 0 mm 3 mps 772 mmHg 60%
    14:00 +12°C° 0 mm 3 mps 772 mmHg 59%
    15:00 +13°C° 0 mm 3 mps 771 mmHg 58%
    16:00 +13°C° 0 mm 2 mps 771 mmHg 64%
    17:00 +12°C° 0 mm 2 mps 771 mmHg 70%
    18:00 +10°C° 0 mm 2 mps 771 mmHg 75%
    19:00 +9°C° 0 mm 2 mps 771 mmHg 78%
    20:00 +9°C° 0 mm 1 mps 771 mmHg 81%
    21:00 +8°C° 0 mm 1 mps 772 mmHg 84%
    22:00 +7°C° 0 mm 2 mps 772 mmHg 86%
    23:00 +6°C° 0 mm 2 mps 772 mmHg 88%

    Day after tomorrow, 27 March, Wednesday

    Time Temperature Precipitation Wind Pressure Humidity
    00:00 +6°C° 0 mm 2 mps 772 mmHg 91%
    01:00 +5°C° 0 mm 2 mps 772 mmHg 91%
    02:00 +5°C° 0 mm 2 mps 772 mmHg 91%
    03:00 +4°C° 0 mm 2 mps 772 mmHg 92%
    04:00 +4°C° 0 mm 2 mps 772 mmHg 92%
    05:00 +4°C° 0 mm 2 mps 772 mmHg 93%
    06:00 +3°C° 0 mm 2 mps 772 mmHg 94%
    07:00 +5°C° 0 mm 2 mps 772 mmHg 89%
    08:00 +7°C° 0 mm 3 mps 772 mmHg 83%
    09:00 +9°C° 0 mm 3 mps 773 mmHg 78%
    10:00 +10°C° 0 mm 3 mps 773 mmHg 73%
    11:00 +11°C° 0 mm 3 mps 773 mmHg 68%
    12:00 +12°C° 0 mm 3 mps 773 mmHg 64%
    13:00 +13°C° 0 mm 3 mps 773 mmHg 63%
    14:00 +13°C° 0 mm 3 mps 773 mmHg 63%
    15:00 +13°C° 0 mm 3 mps 772 mmHg 63%
    16:00 +12°C° 0 mm 3 mps 772 mmHg 68%
    17:00 +12°C° 0 mm 2 mps 772 mmHg 73%
    18:00 +12°C° 0 mm 2 mps 772 mmHg 77%
    19:00 +9°C° 0 mm 2 mps 773 mmHg 80%
    20:00 +9°C° 0 mm 1 mps 773 mmHg 83%
    21:00 +8°C° 0 mm 1 mps 773 mmHg 86%
    22:00 +8°C° 0 mm 1 mps 773 mmHg 88%
    23:00 +7°C° 0 mm 1 mps 773 mmHg 89%

    28 March, Thursday

    Time Temperature Precipitation Wind Pressure Humidity
    00:00 +6°C° 0 mm 2 mps 774 mmHg 91%
    01:00 +5°C° 0 mm 2 mps 774 mmHg 91%
    02:00 +5°C° 0 mm 2 mps 774 mmHg 92%
    03:00 +4°C° 0 mm 2 mps 774 mmHg 93%
    04:00 +4°C° 0 mm 2 mps 774 mmHg 93%
    05:00 +4°C° 0 mm 2 mps 774 mmHg 94%
    06:00 +4°C° 0 mm 1 mps 774 mmHg 94%
    07:00 +6°C° 0 mm 1 mps 774 mmHg 89%
    08:00 +8°C° 0 mm 1 mps 774 mmHg 84%
    09:00 +10°C° 0 mm 1 mps 774 mmHg 79%
    10:00 +12°C° 0 mm 1 mps 774 mmHg 75%
    11:00 +13°C° 0 mm 1 mps 774 mmHg 70%
    12:00 +15°C° 0 mm 1 mps 774 mmHg 65%
    13:00 +15°C° 0 mm 1 mps 774 mmHg 63%
    14:00 +14°C° 0 mm 0 mps 773 mmHg 61%
    15:00 +15°C° 0 mm 0 mps 773 mmHg 59%
    16:00 +14°C° 0 mm 0 mps 773 mmHg 64%
    17:00 +13°C° 0 mm 0 mps 772 mmHg 68%
    18:00 +12°C° 0 mm 0 mps 772 mmHg 72%
    19:00 +12°C° 0 mm 1 mps 772 mmHg 75%
    20:00 +11°C° 0 mm 1 mps 772 mmHg 78%
    21:00 +10°C° 0 mm 1 mps 773 mmHg 81%
    22:00 +9°C° 0 mm 1 mps 772 mmHg 83%
    23:00 +9°C° 0 mm 1 mps 772 mmHg 86%

    29 March, Friday

    Time Temperature Precipitation Wind Pressure Humidity
    00:00 +8°C° 0 mm 1 mps 772 mmHg 89%
    01:00 +8°C° 0 mm 1 mps 772 mmHg 89%
    02:00 +7°C° 0 mm 1 mps 772 mmHg 90%
    03:00 +7°C° 0 mm 1 mps 771 mmHg 90%
    04:00 +6°C° 0 mm 0 mps 771 mmHg 90%
    05:00 +6°C° 0 mm 0 mps 771 mmHg 91%
    06:00 +6°C° 0 mm 0 mps 771 mmHg 91%
    07:00 +7°C° 0 mm 0 mps 771 mmHg 86%
    08:00 +10°C° 0 mm 1 mps 771 mmHg 81%
    09:00 +12°C° 0 mm 1 mps 771 mmHg 76%
    10:00 +13°C° 0 mm 1 mps 771 mmHg 72%
    11:00 +15°C° 0 mm 1 mps 771 mmHg 67%
    12:00 +16°C° 0 mm 1 mps 770 mmHg 63%
    13:00 +16°C° 0 mm 1 mps 770 mmHg 63%
    14:00 +16°C° 0 mm 1 mps 769 mmHg 62%
    15:00 +16°C° 0 mm 1 mps 769 mmHg 62%
    16:00 +15°C° 0 mm 1 mps 769 mmHg 67%
    17:00 +14°C° 0 mm 1 mps 769 mmHg 71%
    18:00 +13°C° 0 mm 1 mps 768 mmHg 76%
    19:00 +12°C° 0 mm 1 mps 768 mmHg 80%
    20:00 +10°C° 0 mm 2 mps 769 mmHg 84%
    21:00 +9°C° 0 mm 2 mps 769 mmHg 88%
    22:00 +8°C° 0 mm 2 mps 768 mmHg 89%
    23:00 +8°C° 0 mm 2 mps 768 mmHg 91%

    30 March, Saturday

    Time Temperature Precipitation Wind Pressure Humidity
    00:00 +7°C° 0 mm 2 mps 768 mmHg 92%
    01:00 +7°C° 0 mm 2 mps 768 mmHg 93%
    02:00 +7°C° 0 mm 2 mps 767 mmHg 93%
    03:00 +6°C° 0 mm 2 mps 767 mmHg 94%
    04:00 +6°C° 0 mm 2 mps 767 mmHg 94%
    05:00 +6°C° 0 mm 2 mps 767 mmHg 94%
    06:00 +6°C° 0 mm 2 mps 767 mmHg 94%
    07:00 +7°C° 0 mm 2 mps 767 mmHg 89%
    08:00 +9°C° 0 mm 2 mps 767 mmHg 83%
    09:00 +11°C° 0 mm 3 mps 767 mmHg 78%
    10:00 +12°C° 0 mm 3 mps 766 mmHg 73%
    11:00 +13°C° 0 mm 3 mps 766 mmHg 67%
    12:00 +14°C° 0 mm 4 mps 766 mmHg 62%
    13:00 +14°C° 0 mm 4 mps 765 mmHg 61%
    14:00 +14°C° 0 mm 4 mps 765 mmHg 61%
    15:00 +14°C° 0 mm 4 mps 765 mmHg 60%
    16:00 +13°C° 0.1 mm 4 mps 765 mmHg 66%
    17:00 +12°C° 0.1 mm 3 mps 765 mmHg 73%
    18:00 +11°C° 0.1 mm 3 mps 765 mmHg 79%
    19:00 +10°C° 0 mm 4 mps 765 mmHg 81%
    20:00 +8°C° 0 mm 4 mps 766 mmHg 83%
    21:00 +7°C° 0 mm 5 mps 767 mmHg 86%
    22:00 +7°C° 0 mm 5 mps 767 mmHg 82%
    23:00 +6°C° 0 mm 5 mps 767 mmHg 78%
    Show more